Regional Weather Roundup
Issued by NWS Green Bay, WI

Home | Current Version | Previous Version | Graphics & Text | Print | Product List | Glossary On
Versions: 1 2 3 4 5 6 7 8 9 10 11 12 13 14 15 16 17 18 19 20 21 22 23 24 25 26 27 28 29 30 31 32 33 34 35 36 37 38 39 40 41 42 43 44 45 46 47 48 49 50
000
ASUS43 KGRB 061911
RWRGRB

NORTH-CENTRAL AND NORTHEAST WISCONSIN REGIONAL WEATHER ROUNDUP
NATIONAL WEATHER SERVICE GREEN BAY WI
200 PM CDT FRI MAY 06 2016

WIZ005-009-010>012-018-019-062000-
NORTH CENTRAL WISCONSIN

CITY           SKY/WX    TMP DP  RH WIND       PRES   REMARKS
IRONWOOD         N/A     88  36  15 W15G24    29.67F
MANITOWISH WTR SUNNY     86  35  16 W10G20    29.74F
ARBOR VITAE    SUNNY     86  30  13 W13G18    29.76F
EAGLE RIVER    SUNNY     87  28  12 W14G24    29.75F
LAND O LAKES   SUNNY     87  27  11 NW10G17   29.75F
RHINELANDER    SUNNY     88  37  16 W16G23    29.77F
PHILLIPS       SUNNY     85  41  21 SW9G17    29.76F
ANTIGO         MOSUNNY   83  48  29 SW12      29.79F
TOMAHAWK       SUNNY     86  35  15 W9G20     29.77F
MERRILL        SUNNY     88  43  20 W14G24    29.78F
$$

WIZ013-073-062000-
NORTHEAST WISCONSIN

CITY           SKY/WX    TMP DP  RH WIND       PRES   REMARKS
IRON MOUNTAIN  SUNNY     87  45  23 VRB5      29.72F
MARINETTE      SUNNY     75  46  35 E10       29.78F
OCONTO         SUNNY     76  49  39 S10       29.77F
$$

WIZ017-030-035>037-045-062000-
CENTRAL WISCONSIN

CITY           SKY/WX    TMP DP  RH WIND       PRES   REMARKS
MEDFORD        SUNNY     82  47  28 SW13G18   29.79F
WAUSAU         SUNNY     86  44  23 W14       29.78F
MOSINEE        SUNNY     84  43  23 W12G20    29.82F
MARSHFIELD     SUNNY     87  43  21 W17       29.79F
WISC RAPIDS    SUNNY     88  38  17 W13G18    29.81F
STEVENS POINT  SUNNY     81  46  29 W7        29.81F
WAUPACA        SUNNY     86  38  18 W12G18    29.80F
SHAWANO        SUNNY     85  45  24 W9        29.78F
CLINTONVILLE   SUNNY     82  43  24 SW7       29.79F
WAUTOMA        SUNNY     84  45  25 SW5G16    29.82F
$$

WIZ038-039-048-051-062000-
FOX VALLEY

CITY           SKY/WX    TMP DP  RH WIND       PRES   REMARKS
NWS GREEN BAY  SUNNY     81  48  31 W8        29.79F
APPLETON       MOSUNNY   79  41  25 W13       29.80F
OSHKOSH        SUNNY     80  47  31 W8        29.81F
FOND DU LAC    SUNNY     82  45  27 NW8       29.82F
$$

WIZ022-050-052-062000-
EAST CENTRAL WISCONSIN

CITY           SKY/WX    TMP DP  RH WIND       PRES   REMARKS
EPHRAIM        FAIR      65  44  45 S10       29.80F
STURGEON BAY   SUNNY     66  46  48 S15       29.83F
MANITOWOC      SUNNY     64  44  48 MISG      29.83F
SHEBOYGAN      SUNNY     76  49  38 SE13      29.82F
$$

LMZ563-521-522-541>543-062000-
LAKESHORE

STATION/POSITION TIME  TEMP    WIND        PRES    VSBY  WAVE
                       AIR SEA DIR/SP/G                  HT/PER
                 (UTC) (F)     (DEG/KT/KT) (MB)    (MI)  (FT/S)
SHEBOYGAN LKSHOR 1900   48     160/ 18/ 19 1010.7F
KEWAUNEE LKSHORE 1800   46     170/ 14/ 16 1009.8F
ALGOMA MARINA    1815          200/ 15/ 16   N/A
NORTHPORT PIER   1800   51     150/ 11/ 14 1009.8F
N MID LAKE BUOY  1850   44 39  180/ 14/ 16 1009.9F         2/ 4
SISTER BAY LKSHO 1819   69     200/ 15/ 19   N/A
CHAMBERS ISLAND  1840   71     170/  8/ 12 1008.8F
MENOMINEE LKSHOR 1800   67     170/ 12/ 16 1008.0F
$$




USA.gov is the U.S. government's official web portal to all federal, state and local government web resources and services.